Dewpoint
69 70 69 74 74 74 73 73 74 74 74 74 74 75 74 74 74 74 73 73 73 72 72 72 72 72 71 71 71 71 72 72 71 71 71 71 71 71 71 71 70 71 71 71 70 70 71 71 71 70 70 70 70 71 71 71 70 70 70 70 69 69 69 69 68 68 67 67 67 67 66 64 65 65 65 63 63 62 60 60 61 57 57 60 65
69 70 70 72 74 74 73 73 73 73 74 74 74 74 74 74 74 73 73 73 72 72 72 72 72 72 72 72 72 72 72 71 71 71 71 71 71 71 70 70 70 70 70 70 70 70 71 70 70 70 71 71 71 71 71 70 70 70 69 69 69 68 68 68 67 67 66 66 66 65 64 64 64 64 63 62 63 65 65 64 63 59 60 63 63
71 70 69 71 74 73 73 73 73 73 73 73 74 74 73 73 73 73 73 73 72 72 72 72 72 72 72 72 72 72 71 71 71 72 72 71 71 71 70 70 70 70 70 70 70 71 71 71 70 70 70 70 70 69 69 69 69 69 69 68 68 66 65 65 65 66 65 66 66 66 65 63 62 63 63 64 65 64 64 63 62 62 59 60 59
70 69 69 72 74 74 73 73 73 73 73 73 73 73 73 73 73 73 73 73 72 72 73 73 72 72 72 72 72 72 72 72 72 72 71 71 71 70 70 70 70 70 70 71 71 71 71 70 70 71 70 70 70 69 69 69 69 69 68 68 66 66 66 65 65 65 65 64 64 62 59 57 61 63 62 63 64 63 62 61 60 62 61 61 63
70 68 68 70 71 73 73 73 73 73 73 73 73 73 73 73 73 73 73 73 72 73 73 73 73 73 73 72 72 72 72 72 72 72 71 71 71 70 70 70 70 70 70 71 71 71 71 70 69 69 70 71 71 70 69 69 68 68 68 67 66 66 66 66 65 65 63 61 59 61 56 55 61 62 61 64 64 62 61 61 63 60 61 63 63
69 68 67 68 67 72 73 72 72 72 73 73 73 73 73 73 73 73 73 73 73 73 73 73 73 73 72 72 72 72 72 72 72 72 71 71 70 70 71 70 70 70 71 71 71 71 70 69 70 70 71 71 71 70 69 69 68 67 66 66 66 65 65 65 64 63 62 61 60 57 57 58 57 60 65 65 64 64 65 65 63 62 62 63 63
69 67 67 66 67 70 73 73 72 72 72 73 73 73 73 72 72 72 72 73 73 73 73 73 73 72 72 72 72 72 72 72 72 71 71 71 71 70 70 70 70 70 70 71 70 70 70 70 70 69 70 71 71 69 68 67 67 66 66 65 65 65 65 65 64 62 60 61 57 57 55 55 58 58 64 64 63 65 66 65 63 63 63 63 62
69 66 65 66 67 72 73 73 72 72 72 73 73 72 72 72 72 71 72 73 73 72 73 73 72 72 72 72 72 72 72 72 71 70 70 71 71 71 70 70 70 70 70 70 70 70 69 69 69 70 71 71 70 69 68 67 66 66 65 65 65 65 65 64 62 61 60 56 58 58 61 61 62 62 63 60 62 65 64 63 61 61 62 62 62
68 66 66 67 68 72 73 73 72 72 73 73 73 72 72 72 71 71 72 72 72 72 72 72 72 72 72 72 72 72 72 72 71 70 70 71 71 71 71 70 70 70 70 69 69 69 69 70 70 71 71 71 69 68 67 66 66 66 65 66 65 65 64 63 62 61 60 57 57 58 59 59 59 60 62 62 62 62 62 61 62 62 60 59 61
67 67 68 69 68 73 73 73 72 72 72 72 72 72 72 71 71 72 72 72 72 72 72 72 72 72 72 72 72 72 71 71 70 70 71 70 70 70 71 70 69 69 70 70 69 69 70 71 71 71 71 70 69 68 67 67 66 66 66 65 65 64 63 61 60 61 58 56 56 57 59 58 54 56 61 62 62 63 63 64 63 60 59 64 62
69 67 68 67 69 73 73 73 73 72 72 72 72 72 71 71 72 72 72 72 72 72 72 72 72 72 72 72 72 71 71 71 71 70 70 70 70 70 70 71 70 70 70 69 69 70 71 71 71 71 70 69 68 67 67 67 66 66 66 65 64 63 62 61 62 56 57 56 55 56 58 61 57 57 64 63 63 65 64 63 62 60 62 63 62
70 68 69 68 73 73 73 73 72 72 71 72 72 72 72 72 72 72 72 72 72 72 72 72 72 72 72 72 72 71 71 71 71 70 70 70 70 70 70 70 70 70 70 70 70 70 71 71 70 69 69 69 68 68 67 66 66 66 65 64 64 63 61 60 57 57 56 58 57 58 55 55 56 60 63 64 64 65 63 61 59 60 62 62 61
71 69 69 70 69 73 73 73 72 72 72 72 72 72 72 72 72 72 72 72 72 72 72 72 72 72 72 72 72 71 71 71 71 71 70 71 70 70 70 70 70 70 70 71 71 70 71 71 70 69 69 68 68 68 67 66 66 65 65 64 63 62 60 60 56 57 56 56 57 57 55 56 60 64 64 63 63 63 62 59 61 63 62 62 61
71 69 70 68 69 73 73 73 72 72 72 72 72 72 72 72 72 72 73 73 73 72 73 73 73 73 72 72 72 71 71 71 71 71 70 71 71 71 71 71 70 71 71 71 70 70 70 70 70 69 69 69 68 67 66 66 65 65 64 64 63 62 60 61 60 56 57 54 59 57 57 62 62 63 63 62 62 60 60 62 61 61 63 61 59
70 69 69 67 69 70 73 72 72 72 72 72 72 72 72 72 72 73 73 73 73 73 73 73 73 73 73 73 72 72 71 71 71 71 70 70 71 71 71 71 71 71 71 71 70 70 70 69 69 69 69 68 68 67 66 66 65 65 64 63 63 62 60 58 58 57 55 55 55 55 57 63 65 63 63 63 62 61 62 63 62 61 60 60 59
70 70 69 68 68 69 69 73 72 72 72 72 72 72 72 72 73 73 73 73 73 73 73 73 72 73 73 73 72 72 72 71 71 71 71 71 71 71 71 71 71 71 71 71 70 70 70 69 69 69 69 68 68 67 66 66 65 65 64 64 63 61 61 62 58 56 56 56 56 58 59 63 64 62 61 61 62 61 61 59 60 61 61 60 59
71 71 68 67 68 68 66 68 71 72 72 72 72 72 72 73 73 73 73 73 73 73 73 73 73 73 73 72 72 72 72 72 71 71 71 71 71 71 71 71 71 71 71 70 70 70 70 69 69 69 69 68 68 67 67 66 65 64 64 64 63 62 61 62 56 58 55 55 55 57 58 59 62 62 61 58 59 61 60 60 60 60 60 60 60
71 70 69 68 67 66 67 67 69 70 70 71 72 72 72 73 73 73 73 73 73 73 73 73 73 73 72 72 72 72 72 72 71 71 71 71 71 71 71 71 71 71 70 70 70 70 69 69 69 69 69 68 68 67 66 66 65 65 64 63 63 62 62 62 57 57 56 57 57 58 59 61 60 60 60 57 58 61 60 61 61 60 60 60 60
69 69 69 69 67 67 66 68 69 67 69 69 69 71 71 72 72 73 73 73 73 73 73 72 73 72 72 72 72 72 72 72 72 71 71 71 71 71 71 70 71 70 70 70 70 70 70 69 69 69 69 68 68 67 66 65 65 65 64 64 63 62 62 59 57 56 57 56 57 58 59 60 59 58 59 58 61 60 59 59 58 58 58 60 60
70 70 71 68 67 65 67 68 67 68 69 69 70 68 71 71 71 71 72 72 72 72 72 72 72 72 72 72 72 72 72 71 72 71 71 72 71 69 71 70 71 70 70 70 70 70 70 70 69 69 69 69 68 67 66 66 65 65 64 64 62 62 59 57 54 55 56 55 57 57 60 59 59 59 59 60 61 60 59 58 57 59 60 59 59
70 69 71 72 69 68 69 69 69 69 69 70 70 69 68 71 71 70 71 71 72 72 71 72 72 72 72 72 72 70 71 71 72 70 72 71 70 71 71 71 71 70 70 69 70 71 71 71 70 69 69 68 67 67 66 66 65 65 65 64 63 60 59 58 57 58 58 55 57 56 59 59 59 61 62 60 57 59 59 58 57 57 57 57 57
67 67 66 68 68 69 69 69 70 70 69 70 69 69 70 70 69 70 70 71 71 72 72 70 72 71 71 71 70 68 67 68 69 70 69 69 70 71 71 71 70 70 70 70 70 70 71 71 70 69 69 68 67 65 66 66 65 65 65 64 64 60 60 59 59 57 57 57 58 58 57 58 60 62 61 58 57 61 60 58 57 58 57 57 57
65 66 66 67 67 68 67 67 69 70 70 70 68 71 68 69 68 68 67 68 69 70 68 69 69 68 69 67 67 67 66 66 69 67 67 69 69 71 71 71 70 70 70 70 70 70 70 71 70 69 69 68 67 65 64 64 65 66 64 64 61 59 60 59 59 57 55 57 59 60 57 58 61 61 60 58 60 61 60 58 57 58 57 57 57
65 67 67 67 67 67 66 65 67 65 67 67 69 69 71 68 69 68 68 68 69 68 68 67 66 67 66 67 67 66 66 67 68 69 69 68 69 70 70 71 70 70 70 69 69 70 70 70 70 69 68 67 66 63 63 64 64 64 61 60 59 59 60 59 57 58 57 56 56 60 59 59 60 60 59 58 59 60 60 59 59 58 57 58 57
68 68 68 67 67 66 66 65 67 66 66 67 67 68 68 69 69 71 68 69 67 68 67 68 67 67 66 67 63 67 66 66 68 68 66 66 66 67 69 67 69 69 69 67 66 66 67 66 68 68 66 66 65 66 65 64 65 63 62 61 60 60 60 60 58 57 58 59 59 59 59 59 59 58 60 59 59 60 60 60 59 58 58 57 57
66 66 67 67 66 65 67 66 67 68 67 66 66 66 67 68 67 69 70 69 69 68 67 67 68 68 66 64 65 67 67 64 67 67 65 65 65 64 65 66 65 67 67 66 65 64 64 63 64 64 64 66 66 66 65 64 63 62 61 62 60 60 59 57 58 58 58 58 58 59 59 59 59 58 59 59 59 59 61 60 59 59 57 57 57
70 68 66 69 67 66 66 66 67 67 67 67 67 66 66 67 67 67 67 68 69 68 71 67 68 69 68 66 66 66 65 63 66 66 65 64 64 63 63 65 65 66 66 65 66 65 64 64 64 65 63 64 64 65 64 63 63 60 62 60 60 60 59 58 57 58 59 57 59 60 60 60 59 60 58 58 59 59 57 58 59 58 58 57 56
68 68 66 66 66 66 67 67 68 68 68 69 67 67 67 67 66 67 67 67 66 68 68 71 70 69 69 69 67 65 64 63 65 65 64 65 64 65 64 62 63 64 64 64 64 64 64 63 65 64 63 63 63 64 63 62 62 63 61 61 62 62 61 58 58 58 58 59 59 60 60 61 60 59 59 59 57 58 59 58 58 58 58 58 57
66 67 67 66 65 66 68 69 68 68 69 69 68 69 68 68 67 68 66 67 67 67 70 68 70 70 71 69 68 66 64 64 64 64 64 64 64 64 62 61 63 64 65 64 63 64 64 63 64 63 64 64 64 65 63 62 64 64 62 61 61 62 62 61 60 57 57 58 59 60 60 59 58 58 60 59 57 58 58 58 58 58 58 58 57
66 66 67 66 66 67 69 69 70 70 69 69 70 69 68 68 68 67 68 66 66 67 68 68 69 68 69 69 68 67 65 63 65 62 63 65 63 66 65 64 63 62 64 64 64 63 63 62 63 63 62 65 64 65 64 63 62 63 62 63 62 62 63 60 59 59 58 59 60 59 60 59 59 59 58 58 57 58 58 58 58 55 57 57 58
65 65 65 66 67 68 68 69 69 69 70 70 69 68 69 68 68 69 68 68 67 67 67 68 69 69 68 68 69 69 68 66 65 65 63 65 65 66 64 64 64 62 64 63 64 64 64 63 63 63 63 64 64 64 63 64 63 61 63 63 63 63 62 62 60 59 57 59 59 59 58 60 59 60 59 58 58 58 56 57 57 56 56 55 56
60 60 60 63 65 67 67 67 68 69 69 69 70 70 69 68 69 69 69 68 68 67 67 68 68 67 67 69 68 68 67 69 69 67 66 65 64 63 63 63 62 63 64 63 62 63 63 61 63 64 65 65 66 66 65 63 64 62 62 62 63 63 61 62 59 59 59 60 60 60 59 58 60 60 60 59 59 57 57 57 57 56 56 56 56
55 58 58 60 62 64 65 66 66 67 67 68 69 69 69 69 70 69 69 69 69 68 68 68 69 69 69 68 68 69 68 68 69 67 67 64 65 66 64 65 65 64 65 65 63 64 63 62 64 63 63 64 65 66 63 65 65 64 63 62 64 61 61 61 62 62 59 60 60 59 60 59 58 61 60 59 59 58 58 58 57 56 56 56 55
53 54 59 58 59 61 63 63 66 68 67 67 67 67 69 68 69 69 69 68 69 68 68 69 69 70 68 67 67 67 67 67 66 67 68 68 66 66 64 64 65 66 66 67 64 64 63 62 61 62 62 63 63 65 63 62 62 64 64 63 64 64 62 60 61 62 61 60 61 61 60 59 59 59 57 60 60 59 59 59 58 57 57 57 56
53 55 57 58 59 60 61 61 63 66 67 66 66 67 67 67 68 68 69 69 68 68 69 68 68 69 67 68 66 67 67 67 66 67 68 69 68 65 64 63 64 66 63 64 64 64 65 64 62 60 61 62 61 62 62 62 61 60 63 64 63 62 64 62 63 63 61 63 62 61 62 60 61 60 60 58 60 60 60 59 59 58 58 57 58
54 55 55 57 57 59 60 60 61 63 66 66 66 66 67 67 67 67 67 68 67 68 68 69 68 68 67 67 67 67 67 67 67 67 68 69 67 65 63 64 64 64 64 64 65 64 64 65 65 63 60 59 60 60 63 62 64 62 63 65 64 64 64 63 63 63 62 63 62 62 62 62 62 60 60 60 59 60 60 60 60 59 58 58 58
54 55 55 56 56 57 59 60 60 61 62 65 66 66 66 66 66 66 67 68 67 67 67 68 69 69 68 68 68 68 67 67 67 67 68 67 66 66 65 64 66 64 65 65 63 64 64 64 65 64 62 60 56 56 61 62 63 64 63 65 65 65 64 64 64 65 62 63 64 62 62 61 62 60 61 59 61 61 61 61 61 59 59 59 59
54 55 55 55 54 56 57 59 59 60 62 63 65 66 66 66 65 66 67 66 67 67 66 67 67 68 68 67 67 67 68 67 67 67 68 67 67 67 68 68 66 65 65 65 64 64 64 65 64 63 61 59 57 58 58 60 59 60 63 64 66 65 65 65 65 64 64 64 64 63 63 62 61 60 59 60 60 61 61 61 61 60 60 60 60
54 55 55 54 54 54 55 57 58 59 60 61 61 61 64 66 64 65 66 66 66 66 67 66 66 67 67 67 66 67 68 68 68 67 68 66 67 67 68 67 67 66 65 65 64 64 65 65 64 62 63 59 56 58 57 58 60 60 62 64 65 66 66 64 65 64 64 64 64 63 61 63 62 61 61 60 60 61 61 62 60 59 59 61 61
53 54 55 54 55 55 55 55 57 58 58 57 56 55 56 57 59 61 61 62 64 64 66 65 67 66 66 67 67 67 66 67 67 67 67 68 67 67 68 67 67 66 64 64 63 62 64 65 65 62 60 58 57 56 57 59 59 61 62 63 63 64 64 63 64 64 65 65 65 65 64 63 63 63 61 60 61 60 61 60 60 59 60 60 62
53 53 54 55 55 54 54 54 55 56 57 56 55 55 57 56 60 60 61 61 62 63 64 65 65 66 66 67 66 67 66 66 66 67 67 68 67 67 67 68 69 66 64 64 65 64 64 65 64 65 63 60 58 57 59 60 60 61 62 63 63 63 64 65 64 64 64 64 65 64 64 64 64 64 63 62 60 60 60 61 60 60 59 60 62
52 53 54 54 56 55 55 55 54 55 55 57 55 55 57 56 58 59 60 58 59 60 60 63 65 65 66 66 66 66 66 66 66 66 67 68 67 66 67 66 66 66 65 64 65 66 65 64 64 62 63 61 61 58 59 60 59 58 57 58 61 63 64 64 64 64 64 65 66 66 66 66 64 64 64 62 62 59 59 60 61 61 60 60 62
51 52 53 54 55 54 55 56 55 55 54 56 55 55 57 59 59 58 60 60 62 63 63 64 65 66 66 66 66 66 65 65 65 66 66 67 68 67 67 67 67 66 65 65 65 66 66 65 65 62 61 62 62 63 63 63 57 59 59 58 56 58 61 62 64 64 64 65 64 65 66 65 65 65 64 63 62 62 59 59 60 60 61 61 59
50 51 52 53 54 54 55 56 55 56 56 56 57 57 57 59 60 60 61 62 61 62 64 65 65 65 65 66 65 66 64 65 65 65 66 67 67 67 68 67 67 67 66 65 65 65 66 65 64 64 63 61 58 60 64 67 62 58 56 57 57 56 53 59 61 62 62 64 64 64 65 66 67 66 64 63 62 62 62 60 58 60 61 62 61
50 51 52 52 53 54 54 55 55 56 55 56 57 58 57 57 57 58 57 60 61 60 61 60 62 63 63 64 65 65 65 65 65 65 65 66 66 67 66 68 68 69 67 65 64 64 64 64 64 64 63 61 59 60 63 66 66 62 57 56 56 54 55 54 62 62 63 62 62 64 65 65 64 64 64 62 62 62 61 60 61 60 61 61 62
48 50 52 52 53 53 54 55 54 55 55 56 57 57 57 57 57 55 54 53 54 56 55 57 58 60 61 64 65 64 64 64 64 64 64 64 66 66 68 67 67 68 67 65 64 65 64 62 61 61 62 64 62 59 60 66 67 66 64 60 59 55 57 57 57 56 65 65 64 61 62 64 66 63 64 62 60 60 62 62 62 62 61 61 61
48 49 50 51 52 53 54 54 54 54 55 56 56 56 56 56 58 58 57 57 55 55 56 59 59 60 61 63 64 65 64 64 65 64 64 65 65 66 66 65 65 66 66 67 66 65 63 61 60 60 60 61 63 61 60 62 66 67 64 64 63 62 59 58 57 58 58 64 64 63 62 61 62 63 61 61 60 60 61 61 61 60 61 62 62
48 48 49 50 51 52 53 53 53 53 55 56 56 56 54 54 56 57 57 57 56 57 59 59 60 61 60 62 63 64 65 64 64 64 64 64 65 65 66 66 65 65 67 67 67 65 64 63 63 63 61 61 62 61 61 60 62 64 64 64 64 63 62 62 60 57 57 57 59 62 62 63 63 63 62 60 60 60 61 62 59 59 60 60 61
47 49 49 50 50 50 50 51 52 54 54 55 55 55 55 55 54 55 56 56 58 57 56 57 57 58 60 60 62 62 63 65 65 65 65 64 65 66 66 66 67 67 68 67 66 67 66 66 67 66 66 65 64 64 63 61 61 61 63 64 62 61 61 61 60 59 58 58 56 58 60 62 64 63 64 62 60 61 60 61 60 59 61 61 61
48 49 49 50 49 48 48 49 50 52 53 54 55 55 55 55 55 55 55 55 57 58 57 56 57 58 58 59 60 61 62 64 65 65 65 64 65 65 66 66 67 65 66 66 64 65 65 66 68 68 67 67 66 66 66 65 64 64 63 63 62 62 61 60 60 60 58 58 57 56 61 61 62 64 64 64 62 60 60 61 61 60 59 61 61
48 48 49 49 49 48 48 48 50 52 53 53 54 55 56 56 55 56 56 56 57 59 58 58 55 56 57 58 58 59 62 63 64 65 66 65 66 65 66 66 67 67 65 65 65 65 66 67 66 65 65 66 66 67 67 67 66 65 65 64 63 61 62 61 61 61 62 61 59 58 59 57 57 58 65 63 63 60 60 60 60 61 61 61 60